This is the latest recevied weather packets stored in our database for station/object K3BAY-1. If no packets are shown the sender has not sent any weather packets the latest 10 day(s).
| Time | Temp. | Humidity | Pressure | Rain* | Wind** | Luminosity | Snow |
|---|---|---|---|---|---|---|---|
| 1777928825 | 23.33° C | 39% | 1012.9 hPa | 0 mm | - | 379 W/m² | - |
| 1777928522 | 22.78° C | 39% | 1012.9 hPa | 0 mm | - | 412 W/m² | - |
| 1777928219 | 22.78° C | 38% | 1012.9 hPa | 0 mm | - | 440 W/m² | - |
| 1777927916 | 23.33° C | 39% | 1012.9 hPa | 0 mm | - | 439 W/m² | - |
| 1777927614 | 23.33° C | 39% | 1012.9 hPa | 0 mm | - | 451 W/m² | - |
| 1777927313 | 22.78° C | 40% | 1013.2 hPa | 0 mm | - | 459 W/m² | - |
| 1777927011 | 22.78° C | 40% | 1012.9 hPa | 0 mm | - | 468 W/m² | - |
| 1777926708 | 23.33° C | 38% | 1013.2 hPa | 0 mm | - | 490 W/m² | - |
| 1777926403 | 23.89° C | 37% | 1013.2 hPa | 0 mm | - | 508 W/m² | - |
| 1777926100 | 23.33° C | 37% | 1013.2 hPa | 0 mm | - | 521 W/m² | - |
| 1777925797 | 23.33° C | 38% | 1013.2 hPa | 0 mm | - | 529 W/m² | - |
| 1777925495 | 23.89° C | 38% | 1013.6 hPa | 0 mm | - | 513 W/m² | - |
| 1777925192 | 23.89° C | 37% | 1013.6 hPa | 0 mm | - | 532 W/m² | - |
| 1777924888 | 23.33° C | 38% | 1013.6 hPa | 0 mm | - | 551 W/m² | - |
| 1777924584 | 23.89° C | 38% | 1013.6 hPa | 0 mm | - | 569 W/m² | - |
| 1777924281 | 23.89° C | 37% | 1013.6 hPa | 0 mm | - | 583 W/m² | - |
| 1777923978 | 23.33° C | 37% | 1013.6 hPa | 0 mm | - | 587 W/m² | - |
| 1777923674 | 23.33° C | 37% | 1013.6 hPa | 0 mm | - | 576 W/m² | - |
| 1777923370 | 23.89° C | 37% | 1013.9 hPa | 0 mm | - | 580 W/m² | - |
| 1777923069 | 23.33° C | 37% | 1013.9 hPa | 0 mm | - | 612 W/m² | - |
| 1777922766 | 23.89° C | 37% | 1013.9 hPa | 0 mm | - | 622 W/m² | - |
| 1777922464 | 23.33° C | 38% | 1013.6 hPa | 0 mm | - | 604 W/m² | - |
| 1777922163 | 23.89° C | 37% | 1014.2 hPa | 0 mm | - | 594 W/m² | - |
| 1777921858 | 23.89° C | 36% | 1013.9 hPa | 0 mm | - | 649 W/m² | - |
| 1777921554 | 23.33° C | 37% | 1014.2 hPa | 0 mm | - | 638 W/m² | - |
* Rain latest hour (hover to see other rain measurements)
** Current wind speed in m/s (hover to see current wind gust speed)